Contact Us:
Email: info@sawbill.com
Phone: (218)663-7150
Fax: (218)663-7980
Mail: 4620 Sawbill Trail
Box 2129
Tofte, MN 55615


Powered by
Movable Type 3.15
 
Sawbill Weather History Archives: July 2015
Current Sawbill Weather History | « June 2015 | August 2015 »


Date

High
Temperature

Low
Temperature

Barometric
Pressure

Relative
Humidity 7AM

9 AM
Temperature

Moisture

Snow

7/31/15 67 55 29.98 85% 56 .03"
7/30/15 75 57 29.96 82% 57 0
7/29/15 67 61 29.88 68% 61 Trace
7/28/15 78 62 29.80 49% 62 0
7/27/15 88 61 30.06 82% 65 0
7/26/15 85 64 30.02 77% 67 0
7/25/15 81 61 30.00 84% 64 0
7/24/15 79 60 30.00 86% 61 .11"
7/23/15 80 55 29.94 90% 62 .32"
7/22/15 75 48 30.00 72% 55 0
7/21/15 71 48 30.00 67% 48 0
7/20/15 70 55 29.92 83% 56 Trace
7/19/15 76 59 29.78 73% 62 0
7/18/15 80 58 29.86 73% 59 0
7/17/15 75 60 29.84 83% 60 0
7/16/15 75 58 29.82 92% 63 .04"
7/15/15 67 53 29.98 72% 58 0
7/14/15 70 52 30.02 75% 53 0
7/13/15 68 62 29.86 82% 62 .41"
7/12/15 74 61 29.78 93% 63 .42"
7/11/15 80 60 30.04 78% 61 0
7/10/15 81 50 30.10 81% 69 0
7/9/15 76 55 30.06 85% 61 0
7/8/15 71 45 30.02 76% 50 0
7/7/15 68 44 30.10 74% 45 0
7/6/15 62 51 30.10 77% 52 0
7/5/15 78 56 29.96 98% 60 .65"
7/4/15 73 52 30.00 86% 57 0
7/3/15 78 43 29.98 97% 52 0
7/2/15 72 47 29.98 83% 61 .04"
7/1/15 68 43 30.06 74% 47 0
 


Home I Trip Planning I Rentals and Outfitting I Reservations I Campgrounds I Sawbill Store I Sawbill News I Contact

© 1997 - 2017, Sawbill Canoe Outfitters, Inc. I Privacy Policy